Home > Weather > Cochabamba > Past weeks

Flag for Bolivia Weather for the Past 2 Weeks in Cochabamba, Bolivia

Now
79 °F

Partly sunny.


Feels Like: 79 °F
Forecast: N/A
Wind: No wind

Location: Cochabamba Airport

Current Time: Feb 9, 2016 at 5:26:47 PM

Latest Report: Feb 9, 2016 at 5:00 PM


Visibility: N/A

Pressure: 30.21 "Hg (22.49 "Hg at 2584m altitude)

Humidity: 37%

Dew point: 50 °F

Location of CochabambaLocation

Historic Weather in Cochabamba — Graph

°F

Cochabamba Temperature Yesterday

Maximum temperature yesterday: 81 °F (at 3:00 PM)
Minimum temperature yesterday: 59 °F (at 6:00 AM)
Average temperature yesterday: 71 °F

High & Low Weather Summary for the Past Weeks

 TemperatureHumidityPressure
High90 °F (Jan 25, 4:00 PM)100% (Feb 1, 5:00 AM)30.63 "Hg (Feb 1, 5:00 AM)
Low54 °F (Feb 3, 1:00 AM)17% (Jan 25, 4:00 PM)30.01 "Hg (Jan 25, 4:00 PM)
Average68 °F59%30.24 "Hg
* Reported Jan 25 4:00 PM — Feb 9 4:00 PM, Cochabamba, Weather by CustomWeather, © 2016

Note: Actual official high and low records may vary slightly from our data, if they occured in-between our weather recording intervals... More about our weather records

Advertising

Cochabamba Weather History for the Previous 24 Hours

 ConditionsComfort  
Time TempWeatherWind HumidityBarometerVisibility
4:00 PM
Tue, Feb 9
75 °FBroken clouds.6 mph39%30.24 "HgN/A
3:00 PM73 °FPartly sunny.6 mph44%30.27 "HgN/A
2:00 PM72 °FBroken clouds.3 mph53%30.33 "HgN/A
1:00 PM68 °FBroken clouds.5 mph56%30.36 "HgN/A
12:00 PM64 °FBroken clouds.No wind68%30.39 "HgN/A
11:00 AM63 °FScattered showers. Broken clouds.No wind77%30.42 "Hg5 mi
10:00 AM61 °FLight rain. More clouds than sun.3 mph88%30.42 "Hg6 mi
9:00 AM64 °FScattered showers. More clouds than sun.5 mph60%30.39 "Hg5 mi
8:00 AM63 °FMostly cloudy.9 mph64%30.36 "Hg6 mi
7:00 AM64 °FBroken clouds.10 mph60%30.33 "Hg6 mi
6:00 AM64 °FPartly cloudy.5 mph68%30.30 "Hg6 mi
5:00 AM63 °FPassing clouds.No wind73%30.24 "HgN/A
4:00 AM63 °FPassing clouds.No wind73%30.24 "HgN/A
3:00 AM64 °FPassing clouds.No wind68%30.24 "HgN/A
2:00 AM64 °FPartly cloudy.No wind68%30.24 "HgN/A
1:00 AM66 °FPartly cloudy.No wind60%30.24 "HgN/A
12:00 AM68 °FPartly cloudy.No wind56%30.27 "HgN/A
11:00 PM
Mon, Feb 8
68 °FPartly cloudy.No wind56%30.27 "HgN/A
10:00 PM70 °FPartly cloudy.No wind53%30.24 "HgN/A
9:00 PM70 °FPartly cloudy.6 mph50%30.21 "HgN/A
8:00 PM70 °FPartly cloudy.No wind50%30.18 "HgN/A
7:00 PM73 °FBroken clouds.6 mph50%30.39 "HgN/A
6:00 PM79 °FPartly sunny.9 mph39%30.09 "HgN/A
5:00 PM81 °FPartly sunny.7 mph37%30.09 "HgN/A
Weather by CustomWeather, © 2016

See weather overviewHow to use our weather pages